Location: Unspecified
(0.0000°N, 0.0000°E)
Time: 11:48:06

AO-7 - Pass Details

Date: 08 December 2017
Orbit: 1440 x 1459 km, 101.7° (Epoch: 19 March)

Event Time Altitude Azimuth Distance (km) Brightness Sun altitude
Exits shadow 03:39:17 59° 328° (NNW) 1,651 ? -30.3°
Maximum altitude 03:40:35 66° 286° (WNW) 1,569 ? -30.0°
Drops below altitude 10° 03:48:52 10° 205° (SSW) 3,580 ? -28.1°
Sets 03:51:41 0° 202° (SSW) 4,558 ? -27.5°
